[[{"header":{"parameterUnit":"m.s-1","parameterCategory":1,"la1":30.2992,"la2":30.254,"lo1":-89.0895,"lo2":-89.0443,"dy":0.0025,"dx":0.0025,"nx":19,"ny":19,"refTime":"2026-03-17T09:00:00:Z","depth":0,"parameterNumber":2,"parameterNumberName":"U-component_of_WINDS"},"data":[0,0,0,-3.0604,-3.0607,-3.0763,-3.0763,-3.0962,-3.0964,0,0,0,0,0,0,0,0,0,0,0,-3.056,-3.0561,-3.0603,-3.0607,-3.0763,-3.0763,-3.0962,-3.0964,0,0,0,0,0,0,0,0,0,0,0,-3.0559,-3.0561,-3.0563,-3.0608,-3.0763,-3.0763,-3.0962,-3.0844,0,0,0,0,0,0,0,0,0,0,-3.0693,-3.0655,-3.056,-3.0563,-3.0609,-3.0762,-3.0763,-3.0838,-3.0851,-3.0893,0,-3.0932,0,-3.0951,-3.0978,-3.0978,0,0,0,-3.0605,-3.0644,-3.0684,-3.0563,-3.061,-3.0762,-3.0692,-3.0845,-3.086,-3.091,-3.0935,-3.0942,-3.0955,-3.0979,-3.098,-3.1228,-3.1229,0,0,-3.0597,-3.0589,-3.0674,-3.0694,-3.0672,-3.0687,-3.0697,-3.0854,-3.088,-3.0935,-3.0946,-3.0958,-3.098,-3.0982,-3.1227,-3.1228,0,0,0,-3.0574,-3.0583,-3.0619,-3.0685,-3.0714,-3.0692,-3.0703,-3.0873,-3.0885,-3.0949,-3.096,-3.0981,-3.0984,-3.1226,-3.1227,-3.128,0,0,0,-3.0568,-3.0569,-3.0615,-3.0612,-3.0711,-3.0796,-3.0718,-3.0875,-3.0893,-3.0959,-3.0982,-3.0986,-3.1224,-3.1227,-3.1276,-3.1306,0,0,0,-3.0549,-3.0567,-3.059,-3.0611,-3.0678,-3.0793,-3.0815,-3.0879,-3.09,-3.0979,-3.0986,-3.1223,-3.1226,-3.1272,-3.1299,-3.1367,0,0,0,-3.0525,-3.0636,-3.0591,-3.0718,-3.0676,-3.0826,-3.0814,-3.0926,-3.0999,-3.0983,-3.1224,-3.1227,-3.1271,-3.1296,-3.1363,-3.1421,-3.1445,0,0,-3.066,-3.0652,-3.0727,-3.0691,-3.0846,-3.0803,-3.0965,-3.104,-3.1055,-3.1169,-3.1175,-3.1277,-3.1299,-3.1366,-3.1586,-3.1605,0,0,0,-3.0766,-3.082,-3.0863,-3.0934,-3.0994,-3.1047,-3.1099,-3.1126,-3.1224,-3.1113,-3.1321,-3.1334,-3.1374,-3.1402,-3.1418,-3.1452,-3.124,-3.124,-3.124,-3.0944,-3.0957,-3.1081,-3.1113,-3.1181,-3.1232,-3.1288,-3.1333,-3.1327,-3.1376,-3.1409,-3.1541,-3.1574,-3.1586,-3.1621,-3.1443,-3.1443,-3.1443,-3.1443,-3.114,-3.1217,-3.1205,-3.1321,-3.1334,-3.1431,-3.1484,-3.1476,-3.1567,-3.1518,-3.1553,-3.1496,-3.1607,-3.1638,-3.1447,-3.1447,-3.1446,-3.1446,-3.1445,-3.1255,-3.1294,-3.1327,-3.1428,-3.1504,-3.1532,-3.1619,-3.1628,-3.1637,-3.1672,-3.1706,-3.1705,-3.1704,-3.1688,-3.1689,-3.1689,-3.1689,-3.169,-3.169,-3.1362,-3.1397,-3.147,-3.1542,-3.1587,-3.1647,-3.1699,-3.1743,-3.1794,-3.1793,-3.1793,-3.178,-3.1616,-3.1574,-3.1697,-3.1696,-3.1695,-3.1694,-3.1694,-3.1553,-3.1511,-3.1624,-3.1669,-3.1753,-3.1827,-3.1837,-3.1925,-3.1963,-3.2005,-3.1985,-3.1863,-3.1855,-3.1842,-3.1807,-3.1983,-3.1983,-3.1983,-3.1983,-3.1649,-3.1646,-3.1762,-3.1833,-3.1904,-3.1924,-3.2048,-3.2089,-3.2123,-3.2147,-3.2123,-3.2077,-3.2064,-3.2064,-3.2046,-3.2013,-3.2238,-3.2238,-3.2238,-3.1765,-3.1769,-3.1875,-3.1909,-3.1975,-3.2031,-3.2147,-3.2227,-3.2259,-3.2249,-3.2165,-3.2154,-3.2081,-3.2057,-3.2043,-3.2016,-3.1955,0,0]},{"header":{"parameterUnit":"m.s-1","parameterCategory":1,"la1":30.2992,"la2":30.254,"lo1":-89.0895,"lo2":-89.0443,"dy":0.0025,"dx":0.0025,"nx":19,"ny":19,"refTime":"2026-03-17T09:00:00:Z","depth":0,"parameterNumber":3,"parameterNumberName":"V-component_of_WINDS"},"data":[0,0,0,-2.151,-2.1512,-2.1576,-2.1576,-2.1662,-2.1663,0,0,0,0,0,0,0,0,0,0,0,-2.1493,-2.1494,-2.151,-2.1512,-2.1576,-2.1576,-2.1662,-2.1663,0,0,0,0,0,0,0,0,0,0,0,-2.1493,-2.1494,-2.1495,-2.1512,-2.1576,-2.1576,-2.1662,-2.1612,0,0,0,0,0,0,0,0,0,0,-2.1549,-2.1536,-2.1494,-2.1495,-2.1512,-2.1576,-2.1576,-2.161,-2.1615,-2.1635,0,-2.1653,0,-2.1659,-2.1669,-2.1669,0,0,0,-2.151,-2.1531,-2.1546,-2.1495,-2.1513,-2.1576,-2.1547,-2.1613,-2.1619,-2.1642,-2.1654,-2.1657,-2.1661,-2.167,-2.167,-2.1786,-2.1787,0,0,-2.1506,-2.1506,-2.1542,-2.155,-2.1541,-2.1544,-2.1549,-2.1616,-2.1629,-2.1654,-2.1659,-2.1662,-2.167,-2.1671,-2.1786,-2.1786,0,0,0,-2.1497,-2.1504,-2.1517,-2.1547,-2.1558,-2.1546,-2.1551,-2.1626,-2.1631,-2.166,-2.1663,-2.1671,-2.1672,-2.1785,-2.1786,-2.1815,0,0,0,-2.1495,-2.1498,-2.1516,-2.1516,-2.1557,-2.1593,-2.1559,-2.1626,-2.1634,-2.1663,-2.1671,-2.1673,-2.1784,-2.1785,-2.1812,-2.1828,0,0,0,-2.1488,-2.1498,-2.1508,-2.1516,-2.1544,-2.1592,-2.16,-2.1628,-2.1636,-2.1669,-2.1673,-2.1784,-2.1785,-2.181,-2.1825,-2.1857,0,0,0,-2.1481,-2.1534,-2.1508,-2.1568,-2.1543,-2.161,-2.16,-2.165,-2.1682,-2.1671,-2.1784,-2.1786,-2.181,-2.1823,-2.1855,-2.1883,-2.1895,0,0,-2.1547,-2.1542,-2.1577,-2.1556,-2.1626,-2.16,-2.1675,-2.1705,-2.1709,-2.176,-2.1763,-2.1813,-2.1825,-2.1857,-2.1966,-2.1975,0,0,0,-2.1598,-2.1623,-2.1642,-2.1672,-2.1696,-2.1718,-2.1737,-2.1748,-2.1791,-2.1736,-2.1834,-2.1841,-2.186,-2.1873,-2.1882,-2.1897,-2.1792,-2.1792,-2.1792,-2.169,-2.1692,-2.175,-2.1758,-2.1788,-2.1806,-2.183,-2.1848,-2.1842,-2.1866,-2.188,-2.1946,-2.1962,-2.1968,-2.1984,-2.1897,-2.1897,-2.1897,-2.1897,-2.1786,-2.1821,-2.181,-2.1862,-2.1863,-2.1907,-2.1927,-2.1921,-2.1961,-2.1936,-2.1952,-2.1923,-2.1979,-2.1992,-2.1899,-2.1899,-2.1898,-2.1898,-2.1898,-2.1846,-2.1862,-2.1875,-2.1917,-2.1951,-2.1958,-2.1997,-2.1997,-2.1998,-2.2014,-2.2029,-2.2028,-2.2026,-2.2022,-2.2022,-2.2022,-2.2022,-2.2022,-2.2022,-2.1902,-2.1914,-2.1947,-2.1976,-2.1995,-2.2019,-2.2038,-2.2056,-2.2077,-2.2074,-2.2074,-2.2064,-2.1984,-2.1963,-2.2026,-2.2025,-2.2025,-2.2025,-2.2024,-2.1995,-2.1974,-2.2024,-2.2042,-2.2076,-2.2108,-2.2108,-2.2145,-2.216,-2.2179,-2.2166,-2.2108,-2.2102,-2.2096,-2.2078,-2.2167,-2.2167,-2.2167,-2.2167,-2.2044,-2.2041,-2.2091,-2.2121,-2.215,-2.2154,-2.221,-2.2225,-2.2237,-2.2246,-2.2234,-2.2211,-2.2204,-2.2203,-2.2194,-2.2177,-2.2289,-2.229,-2.229,-2.21,-2.21,-2.2148,-2.2158,-2.2184,-2.2206,-2.2258,-2.2292,-2.2302,-2.2295,-2.2253,-2.2248,-2.2211,-2.22,-2.219,-2.2177,-2.2146,0,0]}]]